When you browse on this site, cookies collect data to enhance your experience and personalize the content and advertising you see.
Visit our Privacy Policy to learn more. By continuing to use the site, you agree to this use of cookies and data.
  • In Czech Republic
  • List of Countries
  • For 7 days
  • Water Temperature
  • Satellite Maps
  • Weather Map
  • Weather Widgets
  • user-avatar
    Login

    Hourly Weather Diapaga

    Today, 17 January, Thursday

    Time Temperature Precipitation Wind Pressure Humidity
    00:00 +27°C° 0 mm 2 mps 736 mmHg 7%
    01:00 +26°C° 0 mm 2 mps 735 mmHg 7%
    02:00 +26°C° 0 mm 2 mps 735 mmHg 7%
    03:00 +25°C° 0 mm 2 mps 735 mmHg 7%
    04:00 +25°C° 0 mm 3 mps 735 mmHg 7%
    05:00 +24°C° 0 mm 3 mps 735 mmHg 7%
    06:00 +24°C° 0 mm 3 mps 735 mmHg 7%
    07:00 +26°C° 0 mm 3 mps 736 mmHg 6%
    08:00 +28°C° 0 mm 3 mps 736 mmHg 5%
    09:00 +30°C° 0 mm 4 mps 737 mmHg 5%
    10:00 +34°C° 0 mm 3 mps 736 mmHg 4%
    11:00 +37°C° 0 mm 3 mps 736 mmHg 4%
    12:00 +39°C° 0 mm 3 mps 736 mmHg 4%
    13:00 +40°C° 0 mm 3 mps 735 mmHg 4%
    14:00 +40°C° 0 mm 2 mps 734 mmHg 4%
    15:00 +41°C° 0 mm 2 mps 733 mmHg 5%
    16:00 +39°C° 0 mm 2 mps 734 mmHg 6%
    17:00 +37°C° 0 mm 2 mps 734 mmHg 6%
    18:00 +34°C° 0 mm 1 mps 734 mmHg 7%
    19:00 +34°C° 0 mm 2 mps 734 mmHg 7%
    20:00 +32°C° 0 mm 2 mps 735 mmHg 8%
    21:00 +31°C° 0 mm 2 mps 735 mmHg 8%
    22:00 +30°C° 0 mm 2 mps 735 mmHg 9%
    23:00 +29°C° 0 mm 2 mps 735 mmHg 9%

    Tomorrow, 18 January, Friday

    Time Temperature Precipitation Wind Pressure Humidity
    00:00 +29°C° 0 mm 2 mps 735 mmHg 9%
    01:00 +28°C° 0 mm 2 mps 735 mmHg 10%
    02:00 +27°C° 0 mm 2 mps 734 mmHg 10%
    03:00 +27°C° 0 mm 2 mps 734 mmHg 11%
    04:00 +26°C° 0 mm 2 mps 734 mmHg 11%
    05:00 +26°C° 0 mm 2 mps 734 mmHg 11%
    06:00 +26°C° 0 mm 2 mps 734 mmHg 11%
    07:00 +28°C° 0 mm 3 mps 735 mmHg 10%
    08:00 +30°C° 0 mm 3 mps 736 mmHg 9%
    09:00 +34°C° 0 mm 4 mps 736 mmHg 7%
    10:00 +36°C° 0 mm 4 mps 736 mmHg 7%
    11:00 +38°C° 0 mm 4 mps 735 mmHg 6%
    12:00 +41°C° 0 mm 4 mps 735 mmHg 6%
    13:00 +42°C° 0 mm 3 mps 734 mmHg 6%
    14:00 +42°C° 0 mm 3 mps 733 mmHg 6%
    15:00 +43°C° 0 mm 3 mps 733 mmHg 6%
    16:00 +40°C° 0 mm 2 mps 733 mmHg 7%
    17:00 +38°C° 0 mm 2 mps 733 mmHg 7%
    18:00 +35°C° 0 mm 1 mps 733 mmHg 8%
    19:00 +34°C° 0 mm 1 mps 734 mmHg 9%
    20:00 +33°C° 0 mm 1 mps 734 mmHg 9%
    21:00 +32°C° 0 mm 1 mps 735 mmHg 10%
    22:00 +32°C° 0 mm 1 mps 734 mmHg 11%
    23:00 +31°C° 0 mm 1 mps 734 mmHg 11%

    Day after tomorrow, 19 January, Saturday

    Time Temperature Precipitation Wind Pressure Humidity
    00:00 +30°C° 0 mm 1 mps 734 mmHg 12%
    01:00 +30°C° 0 mm 1 mps 734 mmHg 12%
    02:00 +29°C° 0 mm 1 mps 733 mmHg 12%
    03:00 +29°C° 0 mm 1 mps 733 mmHg 13%
    04:00 +28°C° 0 mm 1 mps 733 mmHg 13%
    05:00 +28°C° 0 mm 2 mps 734 mmHg 13%
    06:00 +27°C° 0 mm 2 mps 734 mmHg 13%
    07:00 +29°C° 0 mm 2 mps 735 mmHg 15%
    08:00 +31°C° 0 mm 3 mps 735 mmHg 18%
    09:00 +34°C° 0 mm 3 mps 736 mmHg 20%
    10:00 +36°C° 0 mm 3 mps 736 mmHg 22%
    11:00 +38°C° 0 mm 4 mps 735 mmHg 23%
    12:00 +41°C° 0 mm 4 mps 735 mmHg 24%
    13:00 +41°C° 0 mm 4 mps 734 mmHg 24%
    14:00 +40°C° 0 mm 4 mps 733 mmHg 24%
    15:00 +40°C° 0 mm 4 mps 732 mmHg 24%
    16:00 +38°C° 0 mm 3 mps 733 mmHg 27%
    17:00 +37°C° 0 mm 2 mps 733 mmHg 29%
    18:00 +36°C° 0 mm 2 mps 733 mmHg 32%
    19:00 +36°C° 0.2 mm 2 mps 734 mmHg 34%
    20:00 +34°C° 0.2 mm 1 mps 735 mmHg 36%
    21:00 +33°C° 0.2 mm 1 mps 735 mmHg 39%
    22:00 +32°C° 0 mm 1 mps 735 mmHg 35%
    23:00 +32°C° 0 mm 1 mps 735 mmHg 31%

    20 January, Sunday

    Time Temperature Precipitation Wind Pressure Humidity
    00:00 +31°C° 0 mm 2 mps 735 mmHg 27%
    01:00 +31°C° 0.1 mm 2 mps 735 mmHg 22%
    02:00 +30°C° 0.1 mm 3 mps 735 mmHg 16%
    03:00 +29°C° 0.1 mm 3 mps 734 mmHg 11%
    04:00 +29°C° 0 mm 3 mps 735 mmHg 12%
    05:00 +28°C° 0 mm 3 mps 735 mmHg 12%
    06:00 +27°C° 0 mm 2 mps 735 mmHg 13%
    07:00 +28°C° 0 mm 3 mps 736 mmHg 12%
    08:00 +29°C° 0 mm 3 mps 737 mmHg 12%
    09:00 +32°C° 0 mm 4 mps 738 mmHg 11%
    10:00 +33°C° 0 mm 4 mps 737 mmHg 10%
    11:00 +35°C° 0 mm 3 mps 737 mmHg 10%
    12:00 +37°C° 0 mm 3 mps 736 mmHg 9%
    13:00 +38°C° 0 mm 3 mps 736 mmHg 10%
    14:00 +38°C° 0 mm 3 mps 735 mmHg 10%
    15:00 +39°C° 0 mm 3 mps 734 mmHg 11%
    16:00 +37°C° 0 mm 2 mps 734 mmHg 12%
    17:00 +36°C° 0 mm 2 mps 734 mmHg 12%
    18:00 +35°C° 0 mm 2 mps 735 mmHg 13%
    19:00 +34°C° 0 mm 2 mps 735 mmHg 13%
    20:00 +33°C° 0 mm 3 mps 736 mmHg 12%
    21:00 +31°C° 0 mm 3 mps 736 mmHg 12%
    22:00 +31°C° 0 mm 3 mps 736 mmHg 11%
    23:00 +30°C° 0 mm 4 mps 736 mmHg 11%

    21 January, Monday

    Time Temperature Precipitation Wind Pressure Humidity
    00:00 +30°C° 0 mm 4 mps 736 mmHg 10%
    01:00 +29°C° 0 mm 4 mps 736 mmHg 10%
    02:00 +29°C° 0 mm 4 mps 735 mmHg 9%
    03:00 +29°C° 0 mm 4 mps 735 mmHg 8%
    04:00 +28°C° 0 mm 3 mps 735 mmHg 8%
    05:00 +27°C° 0 mm 3 mps 735 mmHg 7%
    06:00 +26°C° 0 mm 3 mps 736 mmHg 6%
    07:00 +28°C° 0 mm 3 mps 736 mmHg 6%
    08:00 +29°C° 0 mm 3 mps 737 mmHg 5%
    09:00 +30°C° 0 mm 4 mps 738 mmHg 4%
    10:00 +33°C° 0 mm 3 mps 737 mmHg 4%
    11:00 +35°C° 0 mm 3 mps 737 mmHg 4%
    12:00 +38°C° 0 mm 3 mps 736 mmHg 5%
    13:00 +38°C° 0 mm 3 mps 735 mmHg 5%
    14:00 +39°C° 0 mm 3 mps 735 mmHg 6%
    15:00 +39°C° 0 mm 3 mps 734 mmHg 7%
    16:00 +38°C° 0 mm 2 mps 734 mmHg 7%
    17:00 +37°C° 0 mm 2 mps 734 mmHg 8%
    18:00 +35°C° 0 mm 2 mps 734 mmHg 9%
    19:00 +34°C° 0 mm 2 mps 735 mmHg 9%
    20:00 +33°C° 0 mm 3 mps 735 mmHg 9%
    21:00 +31°C° 0 mm 3 mps 736 mmHg 9%
    22:00 +30°C° 0 mm 3 mps 736 mmHg 8%
    23:00 +29°C° 0 mm 3 mps 736 mmHg 8%

    22 January, Tuesday

    Time Temperature Precipitation Wind Pressure Humidity
    00:00 +28°C° 0 mm 3 mps 736 mmHg 7%
    01:00 +28°C° 0 mm 3 mps 735 mmHg 6%
    02:00 +27°C° 0 mm 3 mps 735 mmHg 6%
    03:00 +26°C° 0 mm 3 mps 735 mmHg 5%
    04:00 +26°C° 0 mm 3 mps 735 mmHg 5%
    05:00 +25°C° 0 mm 3 mps 735 mmHg 5%
    06:00 +24°C° 0 mm 3 mps 735 mmHg 5%
    07:00 +26°C° 0 mm 4 mps 736 mmHg 4%
    08:00 +27°C° 0 mm 4 mps 737 mmHg 4%
    09:00 +29°C° 0 mm 4 mps 737 mmHg 4%
    10:00 +32°C° 0 mm 4 mps 737 mmHg 4%
    11:00 +34°C° 0 mm 4 mps 736 mmHg 4%
    12:00 +36°C° 0 mm 3 mps 736 mmHg 3%
    13:00 +37°C° 0 mm 3 mps 735 mmHg 4%
    14:00 +38°C° 0 mm 3 mps 734 mmHg 4%
    15:00 +38°C° 0 mm 3 mps 734 mmHg 4%
    16:00 +37°C° 0 mm 3 mps 734 mmHg 4%
    17:00 +35°C° 0 mm 2 mps 734 mmHg 5%
    18:00 +34°C° 0 mm 2 mps 734 mmHg 5%
    19:00 +31°C° 0 mm 2 mps 734 mmHg 5%
    20:00 +30°C° 0 mm 2 mps 735 mmHg 5%
    21:00 +29°C° 0 mm 2 mps 735 mmHg 5%
    22:00 +28°C° 0 mm 2 mps 735 mmHg 5%
    23:00 +27°C° 0 mm 2 mps 735 mmHg 5%
    Show more